Time,TemperatureF,DewpointF,PressureIn,WindDirection,WindDirectionDegrees,WindSpeedMPH,WindSpeedGustMPH,Humidity,HourlyPrecipIn,Conditions,Clouds,dailyrainin,SoftwareType,DateUTC
2013-04-15 00:03:00,42.0,40.0,-100.00,NE,40,6.0,7.0,94,-99.99,,,-99.99,,2013-04-15 04:03:00,
2013-04-15 00:13:00,42.0,40.0,-100.00,NNE,30,6.0,7.0,93,-99.99,,,-99.99,,2013-04-15 04:13:00,
2013-04-15 00:23:00,41.0,40.0,-100.00,NNE,30,7.0,8.0,94,-99.99,,,-99.99,,2013-04-15 04:23:00,
2013-04-15 00:33:00,41.0,40.0,-100.00,NNE,20,6.0,7.0,94,-99.99,,,-99.99,,2013-04-15 04:33:00,
2013-04-15 00:43:00,41.0,39.0,-100.00,NNE,25,6.0,6.0,95,-99.99,,,-99.99,,2013-04-15 04:43:00,
2013-04-15 00:52:00,40.0,39.0,-100.00,NNE,25,6.0,7.0,95,-99.99,,,-99.99,,2013-04-15 04:52:00,
2013-04-15 01:03:00,40.0,39.0,-100.00,NE,50,2.0,6.0,95,-99.99,,,-99.99,,2013-04-15 05:03:00,
2013-04-15 01:13:00,40.0,38.0,-100.00,ENE,60,4.0,4.0,95,-99.99,,,-99.99,,2013-04-15 05:13:00,
2013-04-15 01:23:00,40.0,39.0,-100.00,ENE,70,4.0,6.0,96,-99.99,,,-99.99,,2013-04-15 05:23:00,
2013-04-15 01:33:00,40.0,39.0,-100.00,ENE,70,4.0,6.0,96,-99.99,,,-99.99,,2013-04-15 05:33:00,
2013-04-15 01:42:00,40.0,40.0,-100.00,ENE,70,4.0,6.0,96,-99.99,,,-99.99,,2013-04-15 05:42:00,
2013-04-15 01:52:00,40.0,39.0,-100.00,ENE,75,3.0,5.0,96,-99.99,,,-99.99,,2013-04-15 05:52:00,
2013-04-15 02:02:00,40.0,39.0,-100.00,East,80,3.0,4.0,96,-99.99,,,-99.99,,2013-04-15 06:02:00,
2013-04-15 02:12:00,40.0,40.0,-100.00,East,95,4.0,4.0,96,-99.99,,,-99.99,,2013-04-15 06:12:00,
2013-04-15 02:23:00,41.0,40.0,-100.00,ESE,105,3.0,4.0,96,-99.99,,,-99.99,,2013-04-15 06:23:00,
2013-04-15 02:33:00,41.0,40.0,-100.00,East,95,3.0,4.0,96,-99.99,,,-99.99,,2013-04-15 06:33:00,
2013-04-15 02:42:00,41.0,40.0,-100.00,East,100,4.0,5.0,96,-99.99,,,-99.99,,2013-04-15 06:42:00,
2013-04-15 02:52:00,40.0,39.0,-100.00,East,100,4.0,5.0,96,-99.99,,,-99.99,,2013-04-15 06:52:00,
2013-04-15 03:03:00,41.0,40.0,-100.00,ESE,115,6.0,7.0,96,-99.99,,,-99.99,,2013-04-15 07:03:00,
2013-04-15 03:41:00,44.0,42.0,-100.00,ESE,120,7.0,9.0,92,-99.99,,,-99.99,,2013-04-15 07:41:00,
2013-04-15 03:42:00,45.0,41.0,-100.00,ESE,120,6.0,9.0,87,-99.99,,,-99.99,,2013-04-15 07:42:00,
2013-04-15 03:43:00,45.0,41.0,-100.00,ESE,120,4.0,6.0,83,-99.99,,,-99.99,,2013-04-15 07:43:00,
2013-04-15 03:52:00,46.0,40.0,-100.00,SE,125,6.0,7.0,79,-99.99,,,-99.99,,2013-04-15 07:52:00,
2013-04-15 04:03:00,46.0,40.0,-100.00,SE,130,8.0,10.0,77,-99.99,,,-99.99,,2013-04-15 08:03:00,
2013-04-15 04:13:00,46.0,40.0,-100.00,ESE,120,8.0,10.0,78,-99.99,,,-99.99,,2013-04-15 08:13:00,
2013-04-15 04:22:00,47.0,40.0,-100.00,SE,135,7.0,9.0,77,-99.99,,,-99.99,,2013-04-15 08:22:00,
2013-04-15 04:34:00,47.0,40.0,-100.00,ESE,120,7.0,9.0,77,-99.99,,,-99.99,,2013-04-15 08:34:00,
2013-04-15 04:42:00,48.0,40.0,-100.00,SE,130,9.0,11.0,75,-99.99,,,-99.99,,2013-04-15 08:42:00,
2013-04-15 04:52:00,48.0,40.0,-100.00,SE,130,7.0,11.0,73,-99.99,,,-99.99,,2013-04-15 08:52:00,
2013-04-15 05:03:00,48.0,40.0,-100.00,SE,130,7.0,9.0,72,-99.99,,,-99.99,,2013-04-15 09:03:00,
2013-04-15 05:12:00,47.0,39.0,-100.00,SE,135,7.0,9.0,73,-99.99,,,-99.99,,2013-04-15 09:12:00,
2013-04-15 05:23:00,47.0,40.0,-100.00,SE,125,7.0,11.0,75,-99.99,,,-99.99,,2013-04-15 09:23:00,
2013-04-15 05:33:00,47.0,40.0,-100.00,SE,135,7.0,9.0,75,-99.99,,,-99.99,,2013-04-15 09:33:00,
2013-04-15 05:43:00,46.0,39.0,-100.00,SE,130,6.0,7.0,77,-99.99,,,-99.99,,2013-04-15 09:43:00,
2013-04-15 05:53:00,46.0,39.0,-100.00,SE,145,5.0,7.0,78,-99.99,,,-99.99,,2013-04-15 09:53:00,
2013-04-15 06:03:00,46.0,39.0,-100.00,SSE,150,4.0,6.0,78,-99.99,,,-99.99,,2013-04-15 10:03:00,
2013-04-15 06:13:00,46.0,39.0,-100.00,SSE,150,6.0,7.0,79,-99.99,,,-99.99,,2013-04-15 10:13:00,
2013-04-15 06:23:00,46.0,40.0,-100.00,SSE,155,8.0,9.0,79,-99.99,,,-99.99,,2013-04-15 10:23:00,
2013-04-15 06:33:00,46.0,40.0,-100.00,SSE,150,7.0,10.0,78,-99.99,,,-99.99,,2013-04-15 10:33:00,
2013-04-15 06:42:00,46.0,40.0,-100.00,SSE,150,7.0,8.0,78,-99.99,,,-99.99,,2013-04-15 10:42:00,
2013-04-15 06:52:00,46.0,40.0,-100.00,SE,135,5.0,8.0,79,-99.99,,,-99.99,,2013-04-15 10:52:00,
2013-04-15 07:03:00,45.0,39.0,-100.00,SE,135,6.0,7.0,80,-99.99,,,-99.99,,2013-04-15 11:03:00,
2013-04-15 07:12:00,45.0,40.0,-100.00,SE,135,6.0,7.0,81,-99.99,,,-99.99,,2013-04-15 11:12:00,
2013-04-15 07:23:00,46.0,40.0,-100.00,SE,130,6.0,7.0,82,-99.99,,,-99.99,,2013-04-15 11:23:00,
2013-04-15 07:32:00,46.0,41.0,-100.00,SE,130,5.0,7.0,82,-99.99,,,-99.99,,2013-04-15 11:32:00,
2013-04-15 07:43:00,47.0,42.0,-100.00,SE,130,5.0,7.0,80,-99.99,,,-99.99,,2013-04-15 11:43:00,
2013-04-15 07:53:00,49.0,42.0,-100.00,SE,130,6.0,7.0,78,-99.99,,,-99.99,,2013-04-15 11:53:00,
2013-04-15 08:04:00,50.0,43.0,-100.00,SE,135,5.0,6.0,75,-99.99,,,-99.99,,2013-04-15 12:04:00,
2013-04-15 08:14:00,51.0,43.0,-100.00,SE,130,6.0,7.0,73,-99.99,,,-99.99,,2013-04-15 12:14:00,
2013-04-15 08:23:00,51.0,43.0,-100.00,SE,130,6.0,7.0,73,-99.99,,,-99.99,,2013-04-15 12:23:00,
2013-04-15 08:43:00,53.0,44.0,-100.00,SE,130,7.0,9.0,70,-99.99,,,-99.99,,2013-04-15 12:43:00,
2013-04-15 08:53:00,55.0,44.0,-100.00,SE,130,7.0,8.0,68,-99.99,,,-99.99,,2013-04-15 12:53:00,
2013-04-15 09:04:00,55.0,45.0,-100.00,SE,125,7.0,9.0,67,-99.99,,,-99.99,,2013-04-15 13:04:00,
2013-04-15 09:13:00,56.0,45.0,-100.00,SE,125,7.0,10.0,66,-99.99,,,-99.99,,2013-04-15 13:13:00,
2013-04-15 09:23:00,57.0,46.0,-100.00,SE,135,9.0,12.0,65,-99.99,,,-99.99,,2013-04-15 13:23:00,
2013-04-15 09:34:00,58.0,46.0,-100.00,SE,135,10.0,13.0,64,-99.99,,,-99.99,,2013-04-15 13:34:00,
2013-04-15 09:43:00,59.0,47.0,-100.00,SE,140,11.0,14.0,63,-99.99,,,-99.99,,2013-04-15 13:43:00,
2013-04-15 09:53:00,60.0,47.0,-100.00,SE,135,11.0,12.0,62,-99.99,,,-99.99,,2013-04-15 13:53:00,
2013-04-15 10:05:00,60.0,47.0,-100.00,SE,140,11.0,13.0,62,-99.99,,,-99.99,,2013-04-15 14:05:00,
2013-04-15 10:13:00,61.0,48.0,-100.00,SSE,150,14.0,18.0,61,-99.99,,,-99.99,,2013-04-15 14:13:00,
2013-04-15 10:22:00,61.0,47.0,-100.00,SSE,150,17.0,22.0,60,-99.99,,,-99.99,,2013-04-15 14:22:00,
2013-04-15 10:33:00,61.0,47.0,-100.00,SSE,150,17.0,22.0,60,-99.99,,,-99.99,,2013-04-15 14:33:00,
2013-04-15 10:44:00,63.0,48.0,-100.00,SSE,155,15.0,24.0,58,-99.99,,,-99.99,,2013-04-15 14:44:00,
2013-04-15 10:54:00,63.0,48.0,-100.00,SSE,155,15.0,24.0,58,-99.99,,,-99.99,,2013-04-15 14:54:00,
2013-04-15 11:04:00,64.0,49.0,-100.00,SSE,155,19.0,24.0,57,-99.99,,,-99.99,,2013-04-15 15:04:00,
2013-04-15 11:13:00,64.0,49.0,-100.00,SE,145,19.0,24.0,56,-99.99,,,-99.99,,2013-04-15 15:13:00,
2013-04-15 11:24:00,64.0,49.0,-100.00,SSE,150,18.0,27.0,56,-99.99,,,-99.99,,2013-04-15 15:24:00,
2013-04-15 11:35:00,65.0,50.0,-100.00,SE,135,17.0,24.0,57,-99.99,,,-99.99,,2013-04-15 15:35:00,
2013-04-15 11:44:00,66.0,49.0,-100.00,SE,145,17.0,22.0,55,-99.99,,,-99.99,,2013-04-15 15:44:00,
2013-04-15 11:53:00,66.0,50.0,-100.00,SE,135,19.0,23.0,55,-99.99,,,-99.99,,2013-04-15 15:53:00,
2013-04-15 12:05:00,67.0,51.0,-100.00,SSE,150,17.0,24.0,55,-99.99,,,-99.99,,2013-04-15 16:05:00,
2013-04-15 12:14:00,67.0,50.0,-100.00,SSE,155,19.0,25.0,54,-99.99,,,-99.99,,2013-04-15 16:14:00,
2013-04-15 12:24:00,67.0,51.0,-100.00,SE,145,17.0,23.0,55,-99.99,,,-99.99,,2013-04-15 16:24:00,
2013-04-15 12:34:00,68.0,51.0,-100.00,SSE,150,17.0,24.0,55,-99.99,,,-99.99,,2013-04-15 16:34:00,
2013-04-15 12:44:00,68.0,51.0,-100.00,SSE,150,17.0,24.0,55,-99.99,,,-99.99,,2013-04-15 16:44:00,
2013-04-15 12:53:00,66.0,49.0,-100.00,SSE,155,19.0,25.0,54,-99.99,,,-99.99,,2013-04-15 16:53:00,
2013-04-15 13:04:00,66.0,50.0,-100.00,SSE,155,19.0,24.0,55,-99.99,,,-99.99,,2013-04-15 17:04:00,
2013-04-15 13:15:00,66.0,50.0,-100.00,SSE,155,15.0,24.0,56,-99.99,,,-99.99,,2013-04-15 17:15:00,
2013-04-15 13:22:00,67.0,50.0,-100.00,SSE,150,16.0,24.0,56,-99.99,,,-99.99,,2013-04-15 17:22:00,
2013-04-15 13:33:00,67.0,51.0,-100.00,SSE,150,18.0,22.0,54,-99.99,,,-99.99,,2013-04-15 17:33:00,
2013-04-15 13:43:00,67.0,50.0,-100.00,SSE,155,19.0,22.0,54,-99.99,,,-99.99,,2013-04-15 17:43:00,
2013-04-15 13:52:00,67.0,51.0,-100.00,SE,145,15.0,23.0,57,-99.99,,,-99.99,,2013-04-15 17:52:00,
2013-04-15 14:03:00,68.0,52.0,-100.00,SSE,150,16.0,22.0,56,-99.99,,,-99.99,,2013-04-15 18:03:00,
2013-04-15 14:13:00,69.0,52.0,-100.00,SSE,155,15.0,21.0,55,-99.99,,,-99.99,,2013-04-15 18:13:00,
2013-04-15 14:24:00,68.0,51.0,-100.00,SE,145,17.0,23.0,55,-99.99,,,-99.99,,2013-04-15 18:24:00,
2013-04-15 14:33:00,69.0,53.0,-100.00,SSE,150,15.0,22.0,55,-99.99,,,-99.99,,2013-04-15 18:33:00,
2013-04-15 14:42:00,69.0,53.0,-100.00,SE,135,17.0,26.0,55,-99.99,,,-99.99,,2013-04-15 18:42:00,
2013-04-15 14:52:00,69.0,52.0,-100.00,SSE,165,15.0,22.0,54,-99.99,,,-99.99,,2013-04-15 18:52:00,
2013-04-15 15:02:00,69.0,51.0,-100.00,South,175,19.0,25.0,52,-99.99,,,-99.99,,2013-04-15 19:02:00,
2013-04-15 15:12:00,68.0,51.0,-100.00,SSE,150,20.0,24.0,54,-99.99,,,-99.99,,2013-04-15 19:12:00,
2013-04-15 15:22:00,68.0,51.0,-100.00,SSE,150,20.0,24.0,54,-99.99,,,-99.99,,2013-04-15 19:22:00,
2013-04-15 15:38:00,69.0,51.0,-100.00,SE,145,19.0,24.0,53,-99.99,,,-99.99,,2013-04-15 19:38:00,
2013-04-15 15:53:00,70.0,51.0,-100.00,SSE,150,17.0,23.0,52,-99.99,,,-99.99,,2013-04-15 19:53:00,
2013-04-15 16:02:00,68.0,51.0,-100.00,SE,145,17.0,24.0,54,-99.99,,,-99.99,,2013-04-15 20:02:00,
2013-04-15 16:11:00,69.0,52.0,-100.00,SE,140,19.0,25.0,54,-99.99,,,-99.99,,2013-04-15 20:11:00,
2013-04-15 16:22:00,70.0,52.0,-100.00,SSE,150,17.0,22.0,52,-99.99,,,-99.99,,2013-04-15 20:22:00,
2013-04-15 16:32:00,70.0,52.0,-100.00,SSE,155,17.0,23.0,52,-99.99,,,-99.99,,2013-04-15 20:32:00,
2013-04-15 16:42:00,69.0,51.0,-100.00,SSE,155,17.0,23.0,53,-99.99,,,-99.99,,2013-04-15 20:42:00,
2013-04-15 16:52:00,68.0,51.0,-100.00,SSE,155,14.0,24.0,54,-99.99,,,-99.99,,2013-04-15 20:52:00,
2013-04-15 17:02:00,68.0,51.0,-100.00,SE,145,19.0,24.0,55,-99.99,,,-99.99,,2013-04-15 21:02:00,
2013-04-15 17:12:00,68.0,51.0,-100.00,SE,145,20.0,23.0,55,-99.99,,,-99.99,,2013-04-15 21:12:00,
2013-04-15 17:22:00,68.0,52.0,-100.00,SE,145,16.0,22.0,55,-99.99,,,-99.99,,2013-04-15 21:22:00,
2013-04-15 17:33:00,68.0,52.0,-100.00,SE,140,16.0,22.0,55,-99.99,,,-99.99,,2013-04-15 21:33:00,
2013-04-15 17:43:00,68.0,51.0,-100.00,SSE,150,21.0,27.0,55,-99.99,,,-99.99,,2013-04-15 21:43:00,
2013-04-15 17:53:00,69.0,52.0,-100.00,SE,145,21.0,26.0,54,-99.99,,,-99.99,,2013-04-15 21:53:00,
2013-04-15 18:02:00,68.0,51.0,-100.00,SE,145,19.0,26.0,54,-99.99,,,-99.99,,2013-04-15 22:02:00,
2013-04-15 18:13:00,68.0,52.0,-100.00,SSE,150,16.0,25.0,56,-99.99,,,-99.99,,2013-04-15 22:13:00,
2013-04-15 18:23:00,68.0,52.0,-100.00,SE,145,16.0,22.0,57,-99.99,,,-99.99,,2013-04-15 22:23:00,
2013-04-15 18:33:00,67.0,52.0,-100.00,SE,135,18.0,25.0,58,-99.99,,,-99.99,,2013-04-15 22:33:00,
2013-04-15 18:42:00,67.0,52.0,-100.00,SE,145,17.0,27.0,58,-99.99,,,-99.99,,2013-04-15 22:42:00,
2013-04-15 18:52:00,67.0,52.0,-100.00,SE,145,17.0,24.0,59,-99.99,,,-99.99,,2013-04-15 22:52:00,
2013-04-15 19:02:00,66.0,52.0,-100.00,SSE,150,17.0,29.0,60,-99.99,,,-99.99,,2013-04-15 23:02:00,
2013-04-15 19:12:00,67.0,52.0,-100.00,SE,140,21.0,26.0,59,-99.99,,,-99.99,,2013-04-15 23:12:00,
2013-04-15 19:22:00,66.0,52.0,-100.00,SE,145,17.0,25.0,60,-99.99,,,-99.99,,2013-04-15 23:22:00,
2013-04-15 19:32:00,66.0,53.0,-100.00,SSE,150,17.0,21.0,62,-99.99,,,-99.99,,2013-04-15 23:32:00,
2013-04-15 19:42:00,65.0,52.0,-100.00,SE,140,16.0,21.0,62,-99.99,,,-99.99,,2013-04-15 23:42:00,
2013-04-15 19:52:00,66.0,52.0,-100.00,SSE,150,16.0,22.0,61,-99.99,,,-99.99,,2013-04-15 23:52:00,
2013-04-15 20:02:00,66.0,52.0,-100.00,SSE,150,14.0,22.0,60,-99.99,,,-99.99,,2013-04-16 00:02:00,
2013-04-15 20:12:00,64.0,52.0,-100.00,SSE,150,12.0,20.0,63,-99.99,,,-99.99,,2013-04-16 00:12:00,
2013-04-15 20:22:00,64.0,52.0,-100.00,SE,135,11.0,16.0,65,-99.99,,,-99.99,,2013-04-16 00:22:00,
2013-04-15 20:32:00,63.0,52.0,-100.00,SSE,150,10.0,15.0,65,-99.99,,,-99.99,,2013-04-16 00:32:00,
2013-04-15 20:42:00,63.0,52.0,-100.00,SSE,155,7.0,13.0,67,-99.99,,,-99.99,,2013-04-16 00:42:00,
2013-04-15 20:52:00,63.0,53.0,-100.00,SSE,150,7.0,11.0,68,-99.99,,,-99.99,,2013-04-16 00:52:00,
2013-04-15 21:02:00,63.0,53.0,-100.00,SSE,160,8.0,12.0,69,-99.99,,,-99.99,,2013-04-16 01:02:00,
2013-04-15 21:12:00,63.0,53.0,-100.00,SSE,160,8.0,12.0,69,-99.99,,,-99.99,,2013-04-16 01:12:00,
2013-04-15 21:22:00,63.0,53.0,-100.00,South,170,7.0,11.0,69,-99.99,,,-99.99,,2013-04-16 01:22:00,
2013-04-15 21:32:00,62.0,52.0,-100.00,South,170,6.0,9.0,71,-99.99,,,-99.99,,2013-04-16 01:32:00,
2013-04-15 21:42:00,61.0,53.0,-100.00,SSE,165,4.0,7.0,72,-99.99,,,-99.99,,2013-04-16 01:42:00,
2013-04-15 21:52:00,60.0,52.0,-100.00,SSE,155,4.0,6.0,73,-99.99,,,-99.99,,2013-04-16 01:52:00,
2013-04-15 22:02:00,59.0,52.0,-100.00,SSE,150,6.0,6.0,76,-99.99,,,-99.99,,2013-04-16 02:02:00,
2013-04-15 22:12:00,59.0,52.0,-100.00,SSE,165,6.0,7.0,78,-99.99,,,-99.99,,2013-04-16 02:12:00,
2013-04-15 22:22:00,59.0,53.0,-100.00,South,170,5.0,7.0,79,-99.99,,,-99.99,,2013-04-16 02:22:00,
2013-04-15 22:32:00,59.0,53.0,-100.00,SSE,160,5.0,6.0,79,-99.99,,,-99.99,,2013-04-16 02:32:00,
2013-04-15 22:42:00,59.0,53.0,-100.00,SE,140,4.0,6.0,81,-99.99,,,-99.99,,2013-04-16 02:42:00,
2013-04-15 22:52:00,58.0,53.0,-100.00,SSE,165,4.0,4.0,82,-99.99,,,-99.99,,2013-04-16 02:52:00,
2013-04-15 23:02:00,58.0,53.0,-100.00,SSE,150,2.0,4.0,83,-99.99,,,-99.99,,2013-04-16 03:02:00,
2013-04-15 23:12:00,58.0,53.0,-100.00,SE,130,6.0,7.0,85,-99.99,,,-99.99,,2013-04-16 03:12:00,
2013-04-15 23:22:00,58.0,54.0,-100.00,SE,125,6.0,8.0,85,-99.99,,,-99.99,,2013-04-16 03:22:00,
2013-04-15 23:33:00,58.0,54.0,-100.00,ESE,120,5.0,6.0,85,-99.99,,,-99.99,,2013-04-16 03:33:00,
2013-04-15 23:43:00,58.0,54.0,-100.00,ESE,120,5.0,6.0,85,-99.99,,,-99.99,,2013-04-16 03:43:00,
2013-04-15 23:52:00,58.0,53.0,-100.00,SE,145,6.0,7.0,85,-99.99,,,-99.99,,2013-04-16 03:52:00,